Weather History for Douglas, WY

Change the Weather History Date:

Wednesday, April 3, 2013

  Actual Average Record
Temperature  
Mean Temperature 47 °F 40 °F  
Max Temperature 70 °F 54 °F 73 °F (2005)
Min Temperature 24 °F 27 °F 11 °F (2002)
Degree Days  
Heating Degree Days 18 24  
Month to date heating degree days 66 74  
Since 1 July heating degree days 6010 6392  
Cooling Degree Days 0 0  
Month to date cooling degree days 0 0  
Year to date cooling degree days 0 0  
Moisture  
Dew Point 25 °F    
Average Humidity 51    
Maximum Humidity 88    
Minimum Humidity 14    
Precipitation  
Precipitation T in 0.03 in 0.39 in (2009)
Month to date precipitation T 0.09  
Year to date precipitation 0.97 1.73  
Sea Level Pressure  
Sea Level Pressure 30.03 in    
Wind  
Wind Speed 7 mph (West)    
Max Wind Speed 32 mph    
Max Gust Speed 41 mph    
Visibility 10 miles    
Events Rain    
T = Trace of Precipitation, MM = Missing Value Source: NWS Daily Summary

Daily Weather History Graph

Daily Weather History Graph

Search for Another Location

Airport:

Trip Planner

Search our weather history database for the weather conditions in past years. The results will help you decide how hot, cold, wet, or windy it might be!

Date:

Astronomy

Apr. 03, 2013 Rise Set
Actual Time 6:39 AM MDT 7:30 PM MDT
Civil Twilight 6:11 AM MDT 7:59 PM MDT
Nautical Twilight 5:37 AM MDT 8:33 PM MDT
Astronomical Twilight 5:01 AM MDT 9:08 PM MDT
Moon 2:31 AM MDT (4/3) 12:36 PM MDT (4/3)
Length of Visible Light 13h 48m
Length of Day
12h 50m
Last Quarter, 44% of the Moon is Illuminated
Apr 3
Last Quarter
Apr 10
New
Apr 18
First Quarter
Apr 25
Full
May 2
Last Quarter

Hourly Weather History & Observations

Time (MDT) Temp. Windchill Dew Point Humidity Pressure Visibility Wind Dir Wind Speed Gust Speed Precip Events Conditions
12:53 AM 33.1 °F 28.7 °F 23.0 °F 66% 30.04 in 10.0 mi SE 4.6 mph - N/A   Clear
1:53 AM 32.0 °F 27.5 °F 23.0 °F 69% 30.04 in 10.0 mi ESE 4.6 mph - N/A   Clear
2:53 AM 32.0 °F 24.8 °F 25.0 °F 75% 30.01 in 10.0 mi ESE 8.1 mph - N/A   Clear
3:53 AM 28.9 °F 25.2 °F 23.0 °F 78% 30.03 in 10.0 mi SE 3.5 mph - N/A   Clear
4:53 AM 30.0 °F - 25.0 °F 82% 30.04 in 10.0 mi Calm Calm - N/A   Clear
5:53 AM 27.0 °F - 21.9 °F 81% 30.06 in 10.0 mi Calm Calm - N/A   Clear
6:53 AM 24.1 °F - 21.0 °F 88% 30.08 in 10.0 mi Calm Calm - N/A   Clear
7:53 AM 33.1 °F - 27.0 °F 78% 30.07 in 9.0 mi Calm Calm - N/A   Clear
8:53 AM 39.0 °F - 28.0 °F 65% 30.08 in 10.0 mi Calm Calm - N/A   Clear
9:53 AM 45.0 °F - 27.0 °F 49% 30.05 in 10.0 mi Calm Calm - N/A   Clear
10:53 AM 52.0 °F - 27.0 °F 38% 30.03 in 10.0 mi South 3.5 mph - N/A   Clear
11:53 AM 60.1 °F - 26.1 °F 27% 29.99 in 10.0 mi Variable 5.8 mph - N/A   Clear
12:53 PM 66.9 °F - 17.1 °F 15% 29.96 in 10.0 mi WNW 15.0 mph 23.0 mph N/A   Clear
1:53 PM 66.0 °F - 16.0 °F 15% 29.96 in 10.0 mi Variable 6.9 mph 20.7 mph N/A   Clear
2:31 PM 68.0 °F - 17.6 °F 15% 30.00 in 10.0 mi WNW 9.2 mph 23.0 mph N/A   Overcast
2:53 PM 68.0 °F - 18.0 °F 15% 29.94 in 10.0 mi NW 9.2 mph 18.4 mph N/A   Scattered Clouds
3:53 PM 64.9 °F - 18.0 °F 16% 29.96 in 10.0 mi WNW 19.6 mph - N/A   Scattered Clouds
4:53 PM 66.0 °F - 18.0 °F 16% 29.95 in 10.0 mi NNW 13.8 mph - N/A   Mostly Cloudy
5:53 PM 63.0 °F - 19.9 °F 19% 29.98 in 10.0 mi NNW 12.7 mph - N/A   Scattered Clouds
6:53 PM 60.1 °F - 24.1 °F 25% 30.03 in 10.0 mi North 12.7 mph - N/A   Mostly Cloudy
7:53 PM 52.0 °F - 35.1 °F 53% 30.07 in 9.0 mi West 24.2 mph 38.0 mph 0.00 in Rain Light Rain
8:53 PM 48.9 °F - 36.0 °F 61% 30.11 in 10.0 mi WSW 13.8 mph - 0.00 in   Overcast
9:53 PM 48.0 °F - 36.0 °F 63% 30.09 in 10.0 mi South 11.5 mph - 0.00 in   Partly Cloudy
10:53 PM 46.0 °F 43.9 °F 35.1 °F 66% 30.09 in 10.0 mi West 4.6 mph - N/A   Clear
11:53 PM 39.0 °F - 33.1 °F 79% 30.09 in 10.0 mi Calm Calm - N/A   Clear